Retour au catalogue

THOR ABLESTAR DEB

ActifLEO
NORAD 121·DEBRIS·🇺🇸 United States

Lancé Jun 29, 1961 depuis Cape Canaveral Space Force Station

Loading…

Prochains Passages (prochaines 24 heures)

TLE

FraisSource: Space-Track

Époque: Sep 7, 2026, 07:24 UTC

1 00121U 61015F   26250.30891732 -.00000030  00000-0  32055-4 0  9998
2 00121  66.7471 197.3662 0098569 305.2957  53.8937 14.00242992337864

Suivez THOR ABLESTAR DEB en temps réel avec AllMySat

Download on the App Store